Location: Crescent
(42.8242°N, 73.7329°W)
Time: 21:21:07
(UTC+00:00)

SR - Pass Details

Date: 23 February 2026
Orbit: 573 x 848 km, 66.7° (Epoch: 6 March)

Event Time Altitude Azimuth Distance (km) Brightness Sun altitude
Rises 09:59:18 0° 270° (W) 2,810 - -19.2°
Reaches altitude 10° 10:03:11 10° 307° (NW) 1,957 - -18.5°
Maximum altitude 10:04:31 11° 324° (NW) 1,898 - -18.3°
Exits shadow 10:05:03 11° 332° (NNW) 1,918 ? -18.2°
Drops below altitude 10° 10:05:53 10° 342° (NNW) 1,997 ? -18.0°
Sets 10:10:01 0° 18° (NNE) 2,982 ? -17.3°
